www.pogodaiklimat.ru

Погода и климат >> Архив погоды >> Россия >> Краснодарский край >> Сосыка


ПОГОДА в Сосыке

  • Прогноз погоды в Сосыке
  • Монитор погоды в Сосыке

АРХИВ ПОГОДЫ в Сосыке

Время (UTC), дата Ветер
(напр.,м/с)
 
Видим.   Явления Облачность Т
(С)
Тd
(С)
f
(%)
Тe
(С)
Тes
(С)
Комфортность P
(гПа)
Po
(гПа)
Тmin
(С)
Tmax
(С)
R
(мм)
R24
(мм)
S
(см)
18 18.08 Ю 1 10 км 9/9 600 м
[Sc]
+23.5 +19.5 78 +29 +29 душно 1011.7 1005.4
21 18.08 З 1 4000 м в посл. час гроза {ливн. осадки} 10/10 600 м
[Sc]
+20.5 +18.1 86 +25 +25 комфорт 1013.0 1006.6
00 19.08 штиль 0 4000 м дымка {гроза, ливн. осадки} ясно +19.1 +17.1 88 +21 +21 комфорт 1013.2 1006.8
03 19.08 штиль 0 4000 м дымка 10/10 600 м
[Sc]
+19.2 +17.4 89 +21 +21 комфорт 1014.0 1007.6 +18.9 0.5
06 19.08 штиль 0 4000 м гроза, ливневой дождь 10/10 600 м
[Cb calv]
+21.1 +18.9 87 +25 +25 комфорт 1015.9 1009.5
09 19.08 ЮВ 1 10 км {гроза, ливн. осадки} 8/8 600 м
[Cb calv]
+26.2 +20.0 69 +32 +36 очень
душно
1015.3 1009.0
12 19.08 штиль 0 10 км {гроза, ливн. осадки} 8/8 600 м
[Cb calv]
+29.4 +19.2 54 +35 +38 очень
душно
1015.2 1009.0
15 19.08 СЗ 1 10 км 3/3 600 м
[Sc diur, vesp]
+29.2 +18.0 51 +34 +35 очень
душно
1015.5 1009.3 +30.9 0.3
18 19.08 штиль 0 10 км ясно +25.1 +18.6 67 +30 +30 душно 1016.5 1010.2
21 19.08 СЗ 1 10 км 3/0
[Ci fib]
+23.1 +18.5 75 +29 +29 очень
душно
1016.5 1010.1
00 20.08 СЗ 1 10 км ясно +22.0 +18.4 80 +27 +27 душно 1016.3 1009.9
03 20.08 штиль 0 4000 м дымка 3/3 600 м
[Sc]
+20.4 +18.5 89 +24 +24 комфорт 1017.2 1010.8 +20.1
06 20.08 СЗ 1 10 км 8/0
[Ac trans Ci fib]
+26.6 +17.1 56 +31 +35 душно 1017.2 1010.9
09 20.08 С 1 10 км 1/0
[Ci fib]
+32.6 +16.7 39 +36 +53 опасность
солнечного
удара
1016.8 1010.6
12 20.08 СВ 2 10 км 3/3 600 м
[Cu hum]
+34.8 +15.4 31 +37 +43 очень
душно
1015.3 1009.2
15 20.08 СЗ 2 10 км 8/3 600 м
[Sc Ac trans Ci fib]
+34.1 +14.3 30 +35 +36 очень
жарко
1014.4 1008.3 +34.9
18 20.08 штиль 0 10 км ясно +28.7 +14.6 42 +31 +31 жарко 1015.8 1009.5
21 20.08 С 1 10 км 3/3 600 м
[Sc]
+26.2 +16.4 55 +30 +30 душно 1015.5 1009.2
00 21.08 С 1 10 км 10/10 600 м
[Cb cap]
+24.4 +15.7 58 +27 +27 жарко 1014.7 1008.3
03 21.08 С 1 10 км 10/0
[Ac und Ci fib]
+22.8 +15.5 63 +27 +27 душно 1014.7 1008.3 +22.8
06 21.08 С 1 10 км 8/1 600 м
[Sc Ac lent Ci fib]
+26.6 +13.8 45 +29 +33 жарко 1015.2 1008.9 +22.8
09 21.08 СВ 2 10 км 8/5 600 м
[Sc Ac lent]
+33.6 +10.6 25 +33 +37 жарко 1013.5 1007.4
12 21.08 СВ 2 10 км 10/3 600 м
[Cu med, cong Cs]
+36.4 +5.8 15 +34 +39 очень
жарко
1012.4 1006.3
15 21.08 СВ 1 10 км 10/8 600 м
[Sc Ac lent Ci fib]
+34.4 +4.0 15 +32 +32 жарко 1011.8 1005.7 +37.1
18 21.08 С 1 10 км 9/9 600 м
[Sc]
+28.7 +7.0 25 +28 +28 жарко 1011.8 1005.6
21 21.08 С 1 10 км 9/9 600 м
[Sc]
+26.5 +6.5 28 +26 +26 жарко 1011.8 1005.5
00 22.08 С 1 10 км 9/9 600 м
[Cb cap]
+23.3 +6.9 35 +24 +24 комфорт 1012.3 1006.0
03 22.08 СВ 1 10 км 8/8 600 м
[Cb cap]
+23.4 +6.4 33 +24 +24 комфорт 1012.3 1005.9 +23.3
06 22.08 СВ 1 10 км 4/3 600 м
[Cb calv Ci ing]
+30.2 +8.5 26 +30 +35 жарко 1013.0 1006.7 +22.9
09 22.08 СВ 2 10 км 3/0
[Ci fib]
+35.5 +5.3 15 +33 +47 жарко 1012.3 1006.2
12 22.08 СВ 3
{10}
10 км 10/0
[Ci fib]
+37.5 +3.7 12 +34 +41 очень
жарко
1011.7 1005.6
15 22.08 СВ 1 10 км 10/0
[Cs]
+35.4 +5.7 16 +33 +34 жарко 1011.3 1005.2 +37.8
18 22.08 С 1 10 км ясно +29.4 +9.7 29 +29 +29 жарко 1012.7 1006.5
21 22.08 штиль 0 10 км ясно +26.4 +8.8 33 +27 +27 жарко 1012.5 1006.2
00 23.08 С 1 10 км 10/0
[Ci fib]
+24.3 +10.1 41 +25 +25 комфорт 1012.4 1006.1
03 23.08 С 1 10 км 10/0
[Cc]
+21.3 +11.7 54 +23 +23 комфорт 1013.1 1006.7 +20.9
06 23.08 С 1 10 км 10/0
[Ac As Ci sp]
+25.9 +12.5 43 +27 +30 жарко 1013.8 1007.5
09 23.08 СВ 2 10 км 10/0
[Cc]
+34.2 +8.8 21 +33 +44 жарко 1013.3 1007.2
12 23.08 С 1 10 км 8/0
[Cc]
+38.1 +5.7 14 +35 +45 очень
жарко
1012.2 1006.1
15 23.08 СЗ 2 10 км 8/0
[Cc]
+35.0 +8.4 20 +33 +34 жарко 1012.3 1006.2 +38.1
18 23.08 СЗ 1 10 км 3/0
[Ci fib]
+30.4 +8.2 25 +30 +30 жарко 1013.2 1007.0
21 23.08 С 1 10 км ясно +27.0 +10.0 34 +27 +27 жарко 1013.4 1007.1
00 24.08 СЗ 1 10 км ясно +26.4 +11.1 38 +27 +27 жарко 1013.4 1007.1
03 24.08 С 1 10 км 3/0
[Ci fib]
+24.3 +11.1 43 +26 +26 жарко 1014.1 1007.8 +24.3
06 24.08 С 1 10 км 6/4 600 м
[Cu hum Ci]
+27.7 +11.8 37 +29 +33 жарко 1014.6 1008.3 +24.3
09 24.08 СЗ 2 10 км 8/3 600 м
[Cu hum Ac trans]
+33.7 +10.0 23 +33 +38 жарко 1013.8 1007.6
12 24.08 СЗ 2
{10}
10 км 9/8 600 м
[Cb calv Ac trans Ci]
+36.3 +10.0 20 +35 +36 очень
жарко
1012.9 1006.8
15 24.08 СЗ 1 10 км 9/0
[Ac trans Ci]
+34.3 +8.2 20 +33 +33 жарко 1013.2 1007.0 +37.2
18 24.08 С 1 10 км зарница 6/6 600 м
[Cb calv]
+31.3 +8.7 25 +30 +30 жарко 1014.4 1008.2
21 24.08 штиль 0 10 км ясно +27.1 +10.5 35 +28 +28 жарко 1014.5 1008.2
00 25.08 СЗ 2 10 км ясно +26.1 +10.3 37 +27 +27 жарко 1013.8 1007.5
03 25.08 СЗ 1 10 км 10/6 600 м
[Sc Ac trans Ci]
+24.1 +11.8 46 +26 +26 жарко 1014.6 1008.2 +24.1
06 25.08 СЗ 2 10 км 4/4 600 м
[Cb calv]
+27.3 +12.8 41 +29 +33 жарко 1015.3 1009.0 +23.9
09 25.08 СВ 1 10 км 3/0
[Ac cast]
+33.6 +11.8 27 +34 +47 очень
жарко
1015.0 1008.8
12 25.08 СВ 4 10 км 6/6 600 м
[Cb calv]
+34.5 +8.1 20 +33 +35 жарко 1015.0 1008.8
15 25.08 СВ 2 10 км 4/3 600 м
[Cb calv Ci ing]
+32.2 +9.8 25 +32 +32 жарко 1015.6 1009.4 +35.8

 

Местоположение метеостанции Сосыка (Краснодарский край, Россия): широта 46.13 долгота 39.83 высота над уровнем моря 55 м.

В архиве по умолчанию представлена погода в Сосыке за последнюю неделю. Архивные данные за месяц целиком и за предыдущие месяцы, начиная с января 2011 года, Вы можете получить, выбрав интересующий диапазон дат из раскрывающегося списка и нажав кнопку "Ввод!".


*Определитесь, кто Вы:
робот инопланетянин человек

Внимание! Время в таблицах - всемирное. Для получения местного времени необходимо прибавить поправку, которая равна 3 ч.

Смотрите также архив погоды в соседних городах и на ближайших метеорологических станциях:

Погода в Тихорецке (Краснодарский край, Россия) (37 км)
Погода в Кущевской (Краснодарский край, Россия) (47 км)
Погода в Каневской (Краснодарский край, Россия) (67 км)
Погода в Староминская (Краснодарский край, Россия) (76 км)
Погода в Кореновске (Краснодарский край, Россия) (78 км)
Погода в Белой Глине (Краснодарский край, Россия) (81 км)
Погода в Зерноград (Ростовская область, Россия) (88 км)
Погода в Тимашевске (Краснодарский край, Россия) (89 км)
Погода в Кропоткине (Краснодарский край, Россия) (97 км)
Погода в Усть-Лабинске (Краснодарский край, Россия) (100 км)

Пояснения к столбцам:

Ветер - указаны скорость ветра в м/с - средняя за 10 мин, порывы в срок и между сроками (в фигурных скобках) и направление, откуда дует ветер: С - северный, СВ - северо-восточный, В - восточный, ЮВ - юго-восточный, Ю - южный, ЮЗ - юго-западный, З - западный, СЗ - северо-западный.
Видимость - горизонтальная дальность видимости в метрах или километрах. При видимости от 1 до 10 км при отсутствии осадков обычно наблюдается дымка, при ухудшении видимости до 1 км и менее - туман. В сухую погоду видимость может ухудшаться дымом, пылью или мглою.
Явления - указаны атмосферные явления, наблюдавшиеся в срок или в последний час перед сроком; фигурными скобками обозначены явления, наблюдавшиеся между сроками (за 1-3 часа до срока); квадратными скобками обозначены град или гололедные отложения с указанием их диаметра в мм.
Облачность - указаны через наклонную черту общая и нижняя облачность в баллах и высота нижней границы облаков в метрах; квадратными скобками обозначены формы облаков: Ci - перистые, Cs - перисто-слоистые, Cc - перисто-кучевые, Ac - высококучевые, As - высокослоистые, Sc - слоисто-кучевые, Ns - слоисто-дождевые, Cu - кучевые, Cb - кучево-дождевые. Подробнее классификацию облаков см. в Атласе облаков (PDF).
T - Температура воздуха - температура, измеренная на высоте 2 м над землей.
Td - Температура точки росы - температура, при понижении до которой содержащийся в воздухе водяной пар достигнет насыщения.
f - Относительная влажность воздуха - влажноcть воздуха, измеренная на высоте 2 м над землей.
Te - Эффективная температура - температура, которую ощущает одетый по сезону человек в тени. Характеристика душности погоды. При расчете учитывается влияние влажности воздуха и скорости ветра на теплоощущения человека.
Tes - Эффективная температура на солнце - температура, которую ощущает человек, с поправкой на солнечный нагрев. Характеристика знойности погоды. Зависит от высоты солнца над горизонтом, облачности и скорости ветра. Ночью, в пасмурную погоду, а также при ветре 12 м/с и более поправка равна нулю.
P - Атмосферное давление - приведенное к уровню моря атмосферное давление.
Po - Атмосферное давление - измеренное на уровне метеостанции атмосферное давление.
Tmin - Минимальная температура - минимум температуры воздуха на высоте 2 м над землей.
Tmax - Максимальная температура - максимум температуры воздуха на высоте 2 м над землей.
R - Количество осадков - Количество выпавших осадков за период времени, мм. При наведении курсора мыши на число - период времени, за который выпало указанное количество осадков.
R24 - Количество осадков - Количество выпавших осадков за 24 часа, мм.
S - Снежный покров - Высота снежного покрова, см. При наведении курсора мыши на число - состояние снежного покрова и степень покрытия местности в баллах.